Погода в Мериде

Испания     38°54′52″N   6°20′00″W
темп.,
°C
ветер,
м/с
пор.,
м/с
влажн.,
%
обл.,
%
осадки,
мм/ч
давл.,
гПа
погр.,
м
17 июня, чт
чт1723:00+22з39420 0.0 1010213
02:00+19зюз58610 0.0 1011378
05:00+17юз257792 0.0 1011181
08:00+18юз2473100 0.0 1012438
11:00+21юз235225 0.2 10121305
14:00+22юз4543100 0.2 10111512
17:00+26зюз563375 0.0 10092492
20:00+21зюз5760100 0.2 1010596
18 июня, пт
пт1823:00+18юв1277100 0.8 1012158
02:00+18ю1278100 0.9 1012182
05:00+14зюз479564 2.5 1012324
08:00+15зюз3486100 4.9 1013430
11:00+19юз226351 0.0 1014937
14:00+23ююз354682 0.1 10131967
17:00+22св214675 0.1 1012599
20:00+23в334539 0.3 1012442
19 июня, сб
сб1923:00+19зюз35526 0.0 1012101
02:00+16зюз37690 0.0 1014195
05:00+14зюз227879 0.0 101434
08:00+15ююз137544 0.0 1014230
11:00+17зюз337182 0.1 1015859
14:00+21зюз554857 0.2 10151718
17:00+25юз553326 0.0 10132492
20:00+22зюз574795 0.0 10131551
20 июня, вс
вс2023:00+18з686386 0.0 1016786
02:00+14з497732 0.0 1016460
05:00+13з37826 0.0 1015355
08:00+13юз2577100 0.0 1015342
11:00+16ююз4661100 0.0 1015675
14:00+19юз4666100 0.1 10141027
17:00+18юз587240 0.6 1013887
20:00+23ююз610410 0.7 10112125
21 июня, пн
пн2123:00+18з510540 0.0 1014362
02:00+13зсз34710 0.0 101591
05:00+11зюз24820 0.0 101569
08:00+12зюз14800 0.0 1015143
11:00+19з35510 0.0 10151044
14:00+23з443828 0.0 10141936
17:00+24зсз553714 0.0 10141949
20:00+23зсз554258 0.0 10141727